ISS (ZARYA) 1 25544U 98067A 25343.18736383 .00013707 00000+0 25261-3 0 9992 2 25544 51.6308 160.0685 0003366 223.6321 136.4401 15.49438460542305 CSS (TIANHE) 1 48274U 21035A 25343.19148786 .00030369 00000+0 38224-3 0 9999 2 48274 41.4680 38.2458 0008971 2.1097 357.9778 15.58940873263472 ISS (NAUKA) 1 49044U 21066A 25343.18736383 .00013707 00000+0 25261-3 0 9998 2 49044 51.6308 160.0685 0003366 223.6321 136.4401 15.49438460230445 FREGAT DEB 1 49271U 11037PF 25343.00860771 .00003399 00000+0 77455-2 0 9994 2 49271 51.6321 210.4589 0865248 215.6108 138.3947 12.34403674201471 CSS (WENTIAN) 1 53239U 22085A 25343.19148786 .00030369 00000+0 38224-3 0 9992 2 53239 41.4680 38.2458 0008971 2.1097 357.9778 15.58940873173840 CSS (MENGTIAN) 1 54216U 22143A 25343.19148786 .00030369 00000+0 38224-3 0 9993 2 54216 41.4680 38.2458 0008971 2.1097 357.9778 15.58940873158647 SOYUZ-MS 27 1 63520U 25072A 25343.18736383 .00013707 00000+0 25261-3 0 9994 2 63520 51.6308 160.0685 0003366 223.6321 136.4401 15.49438460 20201 SHENZHOU-20 (SZ-20) 1 63632U 25082A 25343.19148786 .00030369 00000+0 38224-3 0 9990 2 63632 41.4680 38.2458 0008971 2.1097 357.9778 15.58940873255300 PROGRESS-MS 31 1 64751U 25146A 25343.18736383 .00013707 00000+0 25261-3 0 9993 2 64751 51.6308 160.0685 0003366 223.6321 136.4401 15.49438460 6752 TIANZHOU-9 1 64786U 25149A 25343.19148786 .00030369 00000+0 38224-3 0 9995 2 64786 41.4680 38.2458 0008971 2.1097 357.9778 15.58940873255301 CREW DRAGON 11 1 65077U 25166A 25343.18736383 .00013707 00000+0 25261-3 0 9997 2 65077 51.6308 160.0685 0003366 223.6321 136.4401 15.49438460 2143 DRAGON CRS-33 1 65304U 25186A 25343.18736383 .00013707 00000+0 25261-3 0 9992 2 65304 51.6308 160.0685 0003366 223.6321 136.4401 15.49438460 111 PROGRESS-MS 32 1 65586U 25204A 25343.18736383 .00013707 00000+0 25261-3 0 9995 2 65586 51.6308 160.0685 0003366 223.6321 136.4401 15.49438460 270 CYGNUS NG-23 1 65616U 25208A 25343.18736383 .00013707 00000+0 25261-3 0 9993 2 65616 51.6308 160.0685 0003366 223.6321 136.4401 15.49438460 229 DRAGONFLY 1 65729U 98067XH 25342.73110563 .00167478 00000+0 13272-2 0 9990 2 65729 51.6249 156.2650 0006524 251.4950 108.5339 15.70229086 12536 1998-067XK 1 65731U 98067XK 25342.71190979 .00100336 00000+0 10051-2 0 9992 2 65731 51.6280 157.6517 0005404 220.4904 139.5689 15.64723492 12515 RSP-03 1 65732U 98067XL 25342.78755584 .00139916 00000+0 12545-2 0 9995 2 65732 51.6260 156.6485 0006170 224.9015 135.1483 15.67324417 12544 GHS-01 1 65733U 98067XM 25343.00731221 .00212660 00000+0 15001-2 0 9992 2 65733 51.6283 154.3653 0006877 253.5848 106.4394 15.72845555 12592 YOTSUBA-KULOVER 1 65941U 98067XN 25342.67449860 .00072881 00000+0 92612-3 0 9993 2 65941 51.6278 160.3988 0001691 209.1564 150.9334 15.58725095 9220 BOTAN 1 65942U 98067XP 25342.75246625 .00105605 00000+0 11867-2 0 9990 2 65942 51.6289 159.4206 0003646 205.1392 154.9425 15.61774772 9249 E-KAGAKU-1 1 65943U 98067XQ 25342.73860951 .00067115 00000+0 85625-3 0 9990 2 65943 51.6297 160.0822 0002977 178.8942 181.2057 15.58651727 9237 HRC MONOBLOCK CAMERA 1 66052U 98067XR 25343.11412251 .00042294 00000+0 65126-3 0 9996 2 66052 51.6287 159.5802 0003848 169.4423 190.6649 15.53759866 8279 HTV-X1 1 66174U 25241A 25343.18736383 .00013707 00000+0 25261-3 0 9990 2 66174 51.6308 160.0685 0003366 223.6321 136.4401 15.49438460 511 SZ-21 MODULE 1 66515U 25246C 25343.21524115 .00032371 00000+0 35922-3 0 9999 2 66515 41.4773 37.5424 0006282 241.0117 119.0093 15.62223553 3897 SHENZHOU-22 1 66645U 25272A 25343.19148786 .00030369 00000+0 38224-3 0 9998 2 66645 41.4680 38.2458 0008971 2.1097 357.9778 15.58940873263003 SOYUZ-MS 28 1 66664U 25275A 25343.18736383 .00013707 00000+0 25261-3 0 9991 2 66664 51.6308 160.0685 0003366 223.6321 136.4401 15.49438460 1280 1998-067XS 1 66906U 98067XS 25342.92637765 .00030670 00000+0 53800-3 0 9992 2 66906 51.6297 161.3264 0004021 185.5281 174.5664 15.50272351 1026 1998-067XT 1 66907U 98067XT 25342.79645480 .00074227 00000+0 12614-2 0 9994 2 66907 51.6302 161.9586 0004971 204.3216 155.7539 15.50762002 1006 1998-067XU 1 66908U 98067XU 25342.92515024 .00065818 00000+0 11183-2 0 9996 2 66908 51.6297 161.3178 0005167 203.3313 156.7442 15.50818267 1027 SILVERSAT 1 66909U 98067XV 25342.73171405 .00079284 00000+0 13404-2 0 9997 2 66909 51.6297 162.2763 0005012 204.4469 155.6283 15.50878297 996 1998-067XW 1 66910U 98067XW 25342.92393845 .00067841 00000+0 11401-2 0 9995 2 66910 51.6296 161.3100 0005927 189.6161 170.4716 15.51110893 1023 1998-067XX 1 66911U 98067XX 25343.11695638 .00082324 00000+0 13712-2 0 9993 2 66911 51.6296 160.3494 0005706 191.2278 168.8584 15.51276016 1048 1998-067XY 1 66912U 98067XY 25342.79680776 .00060617 00000+0 10397-2 0 9991 2 66912 51.6301 161.9610 0005040 202.8515 157.2251 15.50590013 998